DECAYED

STARLINK-3325, 50843 (Decayed)

Orbit data source: Space-Track

STARLINK-3325, 50843 was a payload satellite owned by SpaceX/Seattle (US) in LEO that was launched on Thu, 06 Jan 2022 UTC via an FALCON 9 launch vehicle from the Air Force Eastern Test Range (AFETR). Payload-class satellites include a variety of spacecraft equipped with specific instruments for various scientific and technological missions. These include communications satellites like Starlink; space stations such as the ISS; scientific satellites like the Hubble; Earth observation satellites from companies like Planet Labs, Umbra, and HawkEye 360; GPS; miniature CubeSats for education and research; and military/defense satellites.

Not visible in the next 10 days
Identifier
50843, 2022-001AS
Orbit
Decayed
Country
Flag of USUS
Related business
Manufacturer
SpaceX/Seattle
Mission
Decayed Commercial Communications
Bus & Motor
STARLINK, Unknown motor
Mass
297 kg wet, ~275 kg dry
Launch date (UTC)
2022-01-06 (4 years ago)
Launch vehicle
FALCON 9
Launch site
Air Force Eastern Test Range (AFETR)
Object type
Payload
Rocket body
Debris
Shape & HBR
Box + 1 Pan, 10.1 m
Radar Cross Section
13.562 m², Large (>1 m²)

Expand to show TLE details & history
Last TLE update: 1 month ago

TLE from 1 month ago
0 STARLINK-3325
1 50843U 22001AS  26142.54747892  .02247048  12020-4  61579-3 0  9993
2 50843  53.2069 162.4605 0008262  10.0713 350.0495 16.27218699242040
Epoch: 2026-05-22T13:08Z
TLE epoch observation values (Epoch: 2026-05-22T13:08:22.178Z)
Latitude
0.00002°
Longitude
85.19135°
Altitude
195.614 km
Speed
7.793 km/s
True Right ascension
10h 49m 50s
True Declination
0° 00' 00"
Sunlit
Object was in daylight at epoch
Visualization orbit readout
Latitude
Unknown
Longitude
Unknown
Altitude
Unknown
Speed
Unknown
Apparent Right ascension
Unknown
Apparent Declination
Unknown
Sunlit
N/A
Visualization observer readout
Local Sidereal Time
21:25:08
Azimuth
Unknown
Elevation
Unknown
Doppler factor
Unknown
Orbital elements
Apogee altitude
205.719 km
Perigee altitude
194.849 km
Semi-major axis
6,578.421 km
Eccentricity
0.00083
Inclination
53.2069°
RAAN
162.4605°
Arg. of periapsis
10.0713°
True anomaly
350.03312°
Mean anomaly
350.0495°
Eccentric anomaly
350.04131°
Mean motion
4.06781 °/min
Orbital period
88.5 mins
BSTAR
0.00061579
Loading maneuver chart data...
Computing Atmospheric mass density...
Loading historical data...
Loading historical data...
Loading historical data...
Loading historical data...
Loading historical data...
Loading historical data...
Loading historical data...

Documentation

Showing up to 5 results
|